{"data":{"norad_id":55153,"epoch":"2026-09-19T22:53:34.564992Z","epoch_age_seconds":69154,"freshness":"FRESH","line1":"1 55153U 23004P   26262.95387228  .00000001  00000+0 -30679-4 0  9990","line2":"2 55153  87.9150 316.6342 0001800 111.4449 248.6875 13.18685952182187","mean_motion":13.18685952,"eccentricity":0.00018,"inclination_deg":87.915,"raan_deg":316.6342,"arg_perigee_deg":111.4449,"mean_anomaly_deg":248.6875,"bstar":-3.0679e-5,"rev_number":18218,"period_min":109.19961631623,"perigee_km":1188.3810920577,"apogee_km":1191.1055289694,"semimajor_km":7567.8803105136,"source":"CELESTRAK","updated_at":"2026-09-20T09:00:44.752714Z"}}